CZ-2D R/B, 41858

Orbit data source: Space-Track

CZ-2D R/B, 41858 is space debris in SSO originally from a launch on Fri, 11 Nov 2016 UTC launched from the Jiuquan Satellite Launch Center, China (JSC). Debris objects in space refer to the collection of defunct objects orbiting the Earth. Examples of debris include non-operational satellites, rocket bodies, and fragments generated from explosions, collisions, or faulty payload assembly.

Loading next visibility...
Identifier
41858, 2016-068B
Orbit
SSO
Country
Flag of CNCN / PRC
Related business
Manufacturer
BWYIC
Mission
Spacecraft
Bus & Motor
CZ-2 STAGE 2, Unknown motor
Mass
4,006 kg wet, 4,006 kg dry
Launch date (UTC)
2016-11-11 (9 years ago)
Launch vehicle
Unknown
Launch site
Jiuquan Satellite Launch Center, China (JSC)
Object type
Payload
Rocket body
Debris
Shape & HBR
Cyl + 1 Sail, 4.5 m
Radar Cross Section
27.824 m², Large (>1 m²)

Expand to show TLE details & history
Last TLE update: 11 hours ago

TLE from 11 hours ago
0 CZ-2D R/B
1 41858U 16068B   26038.02304599  .00000242  00000-0  95959-4 0  9997
2 41858  98.6306  42.6778 0032547 204.2312 155.7345 14.37097687484276
Epoch: 2026-02-07T00:33Z
TLE epoch observation values (Epoch: 2026-02-07T00:33:11.173Z)
Latitude
-0.00003°
Longitude
-102.77128°
Altitude
792.265 km
Speed
7.446 km/s
True Right ascension
02h 50m 42s
True Declination
0° 00' 00"
Sunlit
Object was in daylight at epoch
Visualization orbit readout
Latitude
Unknown
Longitude
Unknown
Altitude
Unknown
Speed
Unknown
Apparent Right ascension
Unknown
Apparent Declination
Unknown
Sunlit
N/A
Visualization observer readout
Local Sidereal Time
13:50:56
Azimuth
Unknown
Elevation
Unknown
Doppler factor
Unknown
Orbital elements
Apogee altitude
788.485 km
Perigee altitude
741.986 km
Semi-major axis
7,143.373 km
Eccentricity
0.00325
Inclination
98.6306°
RAAN
42.6778°
Arg. of periapsis
204.2312°
True anomaly
155.88721°
Mean anomaly
155.7345°
Eccentric anomaly
155.81091°
Mean motion
3.59491 °/min
Orbital period
100.14 mins
BSTAR
0.000095959
Loading maneuver chart data...
Computing Atmospheric mass density...
Loading historical data...
Loading historical data...
Loading historical data...
Loading historical data...
Loading historical data...
Loading historical data...
Loading historical data...

Documentation

Showing up to 5 results
|